Onweer radar Meer informatie blitzortung!


Regen radar Meer informatie rain snow radar


Bezoek onze andere website:

Template documentation
and downloads

And another site



15 daagse weersverwachting Livorno (IT)

  • Overzicht
  • Per uur
  • 15 dagen
  • Extra
  • Vergelijk
  • Kaarten
  • Dagkaart
  • Meer »
  • Info
  • Statistieken
  • Directe link
    Temp 6h Neerslag Wind  
 07:14     16:53    Daglengte: 9:39 Vandaag
19:00
11°
21.6 mm
4
 07:15     16:53    Daglengte: 9:38 Morgen
01:00
12°
19.4 mm
5
07:00
12°
20.6 mm
1
13:00
13°
 
3
19:00
12°
31.8 mm
5
 07:16     16:52    Daglengte: 9:36 Zondag 17 Nov
01:00
11°
45.8 mm
4
07:00
11°
52.1 mm
5
13:00
13°
70.7 mm
8
19:00
13°
62.6 mm
6
 07:18     16:51    Daglengte: 9:33 Maandag 18 Nov
01:00
11°
75.1 mm
3
07:00
10°
49.4 mm
3
13:00
13°
59.5 mm
4
Locatie info
Region: Tuscany
Latitude: 43.5443°N
Longitude: 10.3262°E
16 masl
Temp/Neerslag /Baro Onweer/Dauwpunt
    Temp Baro 1h Neerslag Dauwpunt Wind UV Bewolking  
 07:14     16:53    Daglengte: 9:39 Vandaag
17:00
11°
1002.6 hPa 14.2 mm
49%
9.1°
3
Windvlaag: 0.3 m/s
87%
18:00
11°
1002.9 hPa 3.9 mm
82%
9.2°
4
Windvlaag: 0.2 m/s
87%
19:00
11°
1003.5 hPa 3.5 mm
82%
8.9°
4
Windvlaag: 0.6 m/s
86%
20:00
11°
1004.1 hPa 3.5 mm
81%
8.8°
4
Windvlaag: 0.8 m/s
82%
21:00
11°
1004.5 hPa 4.9 mm
82%
8.3°
4
Windvlaag: -0.1 m/s
76%
22:00
11°
1004.9 hPa
82%
7.7°
5
Windvlaag: -0.2 m/s
58%
23:00
11°
1005.2 hPa
81%
7.8°
5
Windvlaag: -0.2 m/s
76%
 07:15     16:53    Daglengte: 9:38 Morgen
00:00
11°
1005.4 hPa 5.6 mm
82%
8.7°
5
Windvlaag: -0.3 m/s
64%
01:00
12°
1005.6 hPa 5.3 mm
82%
9.6°
5
Windvlaag: -0.1 m/s
63%
02:00
12°
1005.9 hPa 4.3 mm
82%
9.0°
4
Windvlaag: -0.3 m/s
66% warningclass
03:00
12°
1006.2 hPa 4.3 mm
82%
8.8°
4
Windvlaag: 1 m/s
62% warningclass
04:00
12°
1006.6 hPa 4.3 mm
82%
9.6°
3
Windvlaag: 4.3 m/s
75% warningclass
05:00
11°
1007.2 hPa 4.1 mm
82%
8.6°
3
Windvlaag: 3.2 m/s
39% warningclass
06:00
12°
1007.9 hPa 3.6 mm
80%
8.9°
2
Windvlaag: -0.1 m/s
51%
07:00
12°
1008.9 hPa
39%
8.7°
1
Windvlaag: 0.1 m/s
28%
08:00
11°
1009.6 hPa
28%
9.7°
3
Windvlaag: 1.1 m/s
51%
09:00
12°
1010.2 hPa
24%
10.2°
3
Windvlaag: 0.2 m/s
72%
10:00
12°
1010.3 hPa
22%
10.0°
3
Windvlaag: 0.1 m/s
79%
11:00
13°
1010.3 hPa
24%
10.2°
3
Windvlaag: 0 m/s
89%
12:00
13°
1009.8 hPa
26%
10.6°
3
Windvlaag: 0.1 m/s
87%
13:00
13°
1009.2 hPa
27%
10.4°
3
Windvlaag: -0.5 m/s
89%
14:00
13°
1008.7 hPa 5.0 mm
68%
10.1°
3
Windvlaag: -0.4 m/s
91%
15:00
13°
1007.9 hPa 5.0 mm
72%
10.1°
4
Windvlaag: -0.7 m/s
91%
16:00
13°
1007.4 hPa 5.1 mm
82%
10.1°
5
Windvlaag: -0.4 m/s
91%
17:00
12°
1007.1 hPa 5.3 mm
82%
9.7°
4
Windvlaag: -0.4 m/s
90%
18:00
12°
1006.6 hPa 5.5 mm
82%
9.7°
5
Windvlaag: 0.3 m/s
91%
19:00
12°
1006.1 hPa 6.0 mm
82%
9.1°
5
Windvlaag: 0.5 m/s
91%
20:00
11°
1005.8 hPa 6.9 mm
82%
8.8°
6
Windvlaag: 0.5 m/s
91%
21:00
11°
1004.6 hPa 5.6 mm
82%
8.7°
6
Windvlaag: 0.2 m/s
89%
22:00
10°
1003.4 hPa 6.4 mm
82%
8.3°
6
Windvlaag: -1.3 m/s
91%
23:00
10°
1002.4 hPa 7.0 mm
82%
8.4°
4
Windvlaag: -2.5 m/s
90%
 07:16     16:52    Daglengte: 9:36 Zondag 17 Nov
00:00
10°
1001.1 hPa 8.0 mm
82%
8.5°
4
Windvlaag: -2.1 m/s
91%
01:00
11°
999.9 hPa 11.8 mm
82%
8.5°
4
Windvlaag: -1.4 m/s
89%
02:00
11°
999.6 hPa 8.5 mm
82%
8.5°
2
Windvlaag: -1.5 m/s
89%
03:00
11°
999.5 hPa 8.6 mm
77%
8.2°
2
Windvlaag: -2 m/s
90%
04:00
11°
999.5 hPa 11.3 mm
63%
8.8°
3
Windvlaag: -1.8 m/s
89%
05:00
11°
999.6 hPa 11.7 mm
24%
8.9°
4
Windvlaag: -1.7 m/s
89% warningclass
06:00
11°
999.8 hPa
29%
8.6°
4
Windvlaag: -1.4 m/s
76%
07:00
11°
1000.4 hPa 12.0 mm
79%
8.2°
5
Windvlaag: -1.5 m/s
65%
08:00
12°
1001.6 hPa 11.9 mm
82%
7.9°
4
Windvlaag: -1.4 m/s
73%
09:00
12°
1002.7 hPa 9.3 mm
82%
8.7°
4
Windvlaag: 0.5 m/s
79%
10:00
13°
1003.0 hPa 12.7 mm
99%
9.9°
5
Windvlaag: 0.7 m/s
86%
11:00
13°
1003.4 hPa 12.0 mm
42%
8.2°
5
Windvlaag: 0.4 m/s
91%
12:00
13°
1004.0 hPa 12.1 mm
27%
7.9°
6
Windvlaag: 1.6 m/s
92%
13:00
13°
1004.5 hPa 12.7 mm
39%
9.6°
8
Windvlaag: 0.7 m/s
56%
14:00
13°
1005.0 hPa 12.4 mm
87%
8.9°
8
Windvlaag: -0.6 m/s
74%
15:00
13°
1005.5 hPa 9.1 mm
100%
8.4°
7
Windvlaag: -0.3 m/s
76%
16:00
13°
1005.8 hPa 8.6 mm
100%
8.2°
6
Windvlaag: 1.8 m/s
76%
17:00
13°
1006.1 hPa 12.1 mm
100%
8.4°
6
Windvlaag: 1.9 m/s
62%
18:00
13°
1006.6 hPa 11.9 mm
100%
8.9°
5
Windvlaag: 3 m/s
42%
19:00
13°
1007.3 hPa 8.5 mm
92%
8.6°
6
Windvlaag: 3.1 m/s
64%
20:00
12°
1007.8 hPa 12.9 mm
99%
8.7°
5
Windvlaag: 3.4 m/s
40%
21:00
12°
1008.0 hPa 11.9 mm
99%
8.9°
5
Windvlaag: 4 m/s
49%
22:00
11°
1008.2 hPa 12.1 mm
100%
9.1°
4
Windvlaag: 4.4 m/s
56%
23:00
11°
1008.3 hPa 12.5 mm
100%
9.1°
3
Windvlaag: 3.9 m/s
56%
 07:18     16:51    Daglengte: 9:33 Maandag 18 Nov
00:00
11°
1008.3 hPa 12.8 mm
100%
9.4°
4
Windvlaag: 3.3 m/s
71%
01:00
11°
1008.3 hPa 12.8 mm
100%
8.9°
3
Windvlaag: 4.4 m/s
79%
02:00
11°
1008.5 hPa 12.4 mm
100%
8.2°
3
Windvlaag: 4 m/s
53%
03:00
11°
1008.6 hPa 12.8 mm
100%
9.0°
4
Windvlaag: 4.2 m/s
69%
04:00
11°
1008.5 hPa 12.3 mm
100%
8.5°
3
Windvlaag: 4.2 m/s
82%
05:00
11°
1008.8 hPa
94%
9.0°
2
Windvlaag: 3.9 m/s
40%
06:00
10°
1009.2 hPa
97%
8.6°
3
Windvlaag: 3.6 m/s
45%
07:00
10°
1009.7 hPa 12.0 mm
88%
8.9°
3
Windvlaag: 4.5 m/s
64%
08:00
10°
Voelt als: 8.5°
1010.7 hPa 19.9 mm
90%
8.2°
3
Windvlaag: 11.1 m/s
62%
09:00
10°
1010.9 hPa 19.8 mm
90%
8.5°
3
Windvlaag: 9.4 m/s
48%
10:00
11°
1011.1 hPa 19.8 mm
82%
8.8°
3
Windvlaag: 10.2 m/s
46%
11:00
12°
1011.1 hPa
31%
9.2°
4
Windvlaag: 10.4 m/s
48%
12:00
12°
1011.1 hPa
26%
9.3°
4
Windvlaag: 10.3 m/s
45%
13:00
13°
1010.9 hPa
36%
9.5°
4
Windvlaag: 1.4 m/s
57%
14:00
13°
1011.3 hPa 58.9 mm
100%
9.9°
4
Windvlaag: 9.3 m/s
92%
15:00
13°
1011.0 hPa 59.0 mm
100%
10.3°
4
Windvlaag: 6.7 m/s
93%
16:00
12°
1010.9 hPa 62.5 mm
100%
10.6°
4
Windvlaag: 7.1 m/s
95%
Temp/Neerslag /Baro Onweer/Dauwpunt
    Temp Baro Neerslag Dauwpunt Wind Bewolking  
 07:14     16:53    Daglengte: 9:39 Vandaag
19:00
11°
1003.5 hPa 21.6 mm 8.9°
4
86%
22:00
11°
1004.9 hPa 8.4 mm 7.7°
5
58%
 07:15     16:53    Daglengte: 9:38 Morgen
01:00
12°
1005.6 hPa 10.9 mm 9.6°
5
63%
04:00
12°
1006.6 hPa 12.9 mm 9.6°
3
75% warningclass
07:00
12°
1008.9 hPa 7.6 mm 8.7°
1
28%
10:00
12°
1010.3 hPa   10.0°
3
79%
13:00
13°
1009.2 hPa   10.4°
3
89%
16:00
13°
1007.4 hPa 15.1 mm 10.1°
5
91%
19:00
12°
1006.1 hPa 16.7 mm 9.1°
5
91%
22:00
10°
1003.4 hPa 18.9 mm 8.3°
6
91%
 07:16     16:52    Daglengte: 9:36 Zondag 17 Nov
01:00
11°
999.9 hPa 26.9 mm 8.5°
4
89%
04:00
11°
999.5 hPa 28.3 mm 8.8°
3
89%
07:00
11°
1000.4 hPa 23.8 mm 8.2°
5
65%
10:00
13°
1003.0 hPa 33.9 mm 9.9°
5
86%
13:00
13°
1004.5 hPa 36.8 mm 9.6°
8
56%
16:00
13°
1005.8 hPa 30.1 mm 8.2°
6
76%
19:00
13°
1007.3 hPa 32.5 mm 8.6°
6
64%
22:00
11°
1008.2 hPa 36.9 mm 9.1°
4
56%
 07:18     16:51    Daglengte: 9:33 Maandag 18 Nov
01:00
11°
1008.3 hPa 38.1 mm 8.9°
3
79%
04:00
11°
1008.5 hPa 37.4 mm 8.5°
3
82%
07:00
10°
1009.7 hPa 12.0 mm 8.9°
3
64%
10:00
11°
1011.1 hPa 59.5 mm 8.8°
3
46%
13:00
13°
1010.9 hPa   9.5°
4
57%
16:00
12°
1010.9 hPa 180.4 mm 10.6°
4
95%
19:00
12°
1010.1 hPa 224.8 mm 10.7°
4
99%
22:00
11°
1010.6 hPa 127.9 mm 9.6°
5
91%
 07:19     16:50    Daglengte: 9:31 Dinsdag 19 Nov
01:00
11°
1010.0 hPa 131.8 mm 9.2°
5
91%
04:00
11°
1009.1 hPa 137.3 mm 9.3°
4
91%
07:00
11°
1008.3 hPa 137.8 mm 9.4°
4
90%
10:00
13°
1009.2 hPa 137.8 mm 9.8°
4
90%
13:00
15°
1010.0 hPa 137.8 mm 10.4°
5
90%
16:00
14°
1011.8 hPa 137.8 mm 8.8°
5
63%
19:00
13°
1013.6 hPa 137.9 mm 7.2°
5
36%
22:00
13°
1014.6 hPa 138.3 mm 7.4°
5
27%
 07:20     16:49    Daglengte: 9:29 Woensdag 20 Nov
01:00
13°
1015.6 hPa 138.8 mm 7.6°
5
19%
04:00
12°
1016.1 hPa 139.5 mm 7.5°
3
43%
07:00
12°
1016.6 hPa 140.0 mm 7.6°
1
67%
10:00
13°
1016.7 hPa 141.3 mm 7.5°
2
79%
13:00
14°
1016.7 hPa 141.8 mm 7.5°
2
92%
16:00
13°
1016.5 hPa 142.1 mm 8.3°
2
91%
19:00
12°
1016.4 hPa 142.4 mm 8.9°
2
90%
22:00
11°
1016.2 hPa 142.7 mm 8.0°
3
88%
 07:21     16:48    Daglengte: 9:27 Donderdag 21 Nov
01:00
10°
1015.9 hPa 142.9 mm 7.2°
3
87%
04:00
10°
Voelt als: 8.1°
1015.3 hPa 143.6 mm 7.1°
3
88%
07:00
10°
Voelt als: 7.8°
1014.8 hPa 148.4 mm 7.1°
4
89%
10:00
12°
1014.9 hPa 149.0 mm 8.3°
3
81%
13:00
14°
1014.9 hPa 149.3 mm 9.6°
3
74%
16:00
13°
1015.1 hPa 150.0 mm 10.7°
4
57%
19:00
13°
1015.5 hPa 150.8 mm 11.5°
4
40%
22:00
12°
1016.3 hPa 151.0 mm 11.0°
3
60%
 07:23     16:48    Daglengte: 9:25 Vrijdag 22 Nov
01:00
11°
1016.9 hPa 151.0 mm 10.5°
3
80%
04:00
12°
1017.1 hPa 151.0 mm 10.2°
4
75%
07:00
12°
1017.3 hPa 151.1 mm 9.9°
4
70%
10:00
14°
1017.1 hPa 151.3 mm 11.5°
4
80%
13:00
17°
1016.7 hPa 151.3 mm 13.0°
4
89%
16:00
16°
1016.6 hPa   12.8°
4
75%
19:00
15°
1016.6 hPa 305.5 mm 12.5°
5
61%
 07:24     16:47    Daglengte: 9:23 Zaterdag 23 Nov
01:00
13°
1016.5 hPa 308.1 mm 10.7°
4
90%
07:00
13°
1015.3 hPa 322.4 mm 9.6°
5
90%
13:00
17°
1014.6 hPa 343.9 mm 11.4°
4
90%
19:00
16°
1013.7 hPa 347.0 mm 8.9°
3
91%
 07:25     16:46    Daglengte: 9:21 Zondag 24 Nov
01:00
14°
1013.1 hPa 354.6 mm 9.7°
5
91%
07:00
13°
1011.7 hPa 355.5 mm 10.2°
6
6%
13:00
17°
1010.4 hPa 355.8 mm 11.7°
6
52%
19:00
15°
1009.7 hPa 357.2 mm 11.2°
6
44%
 07:26     16:46    Daglengte: 9:20 Maandag 25 Nov
01:00
14°
1007.9 hPa 359.5 mm 11.1°
5
87%
07:00
14°
1013.0 hPa 363.3 mm 9.0°
4
1%
13:00
15°
1010.3 hPa 1.9 mm 10.2°
2
65%
19:00
14°
1010.5 hPa 3.0 mm 9.7°
2
64%
 07:27     16:45    Daglengte: 9:18 Dinsdag 26 Nov
01:00
13°
1011.4 hPa 2.4 mm 9.2°
1
54%
07:00
13°
1011.1 hPa 1.8 mm 9.0°
2
54%
13:00
14°
1011.1 hPa 2.5 mm 9.7°
1
52%
19:00
13°
1010.6 hPa 2.1 mm 9.1°
1
58%
 07:29     16:45    Daglengte: 9:16 Woensdag 27 Nov
01:00
13°
1010.6 hPa 1.4 mm 8.7°
1
58%
07:00
12°
1009.8 hPa 1.1 mm 8.3°
1
59%
13:00
14°
1009.8 hPa 1.7 mm 9.3°
1
59%
19:00
13°
1009.6 hPa 2.0 mm 9.2°
2
58%
 07:30     16:44    Daglengte: 9:14 Donderdag 28 Nov
01:00
13°
1009.7 hPa 1.9 mm 9.3°
1
57%
07:00
13°
1009.8 hPa 1.3 mm 9.1°
2
52%
13:00
14°
1010.5 hPa 0.9 mm 9.6°
1
49%
19:00
13°
1011.0 hPa 0.4 mm 9.2°
1
45%
 07:31     16:44    Daglengte: 9:13 Vrijdag 29 Nov
01:00
13°
1011.4 hPa 1.2 mm 9.3°
2
54%
07:00
13°
1011.3 hPa 3.3 mm 9.0°
2
55%
13:00
14°
1011.6 hPa 1.8 mm 9.5°
1
56%
19:00
13°
1011.2 hPa 1.4 mm 9.1°
2
51%
 07:32     16:43    Daglengte: 9:11 Zaterdag 30 Nov
01:00
13°
1010.9 hPa 0.9 mm 8.9°
2
57%
07:00
13°
1010.3 hPa 1.4 mm 8.6°
1
57%
13:00
14°
1010.3 hPa 1.8 mm 9.1°
1
60%
  CAPE Lifted Index Hail Supercell Tornado SRH 3km CL BTM PRES CL TOP PRES Swiss DWD icon SMHI TS
 07:14     16:53    Daglengte: 9:39 Vandaag
17:00 450 J/kg -2.0 K 0 % 0 % 0 % 0 m²/s² 0 0 -1.13 61
18:00 426 J/kg -1.8 K 0 % 0 % 0 % 0 m²/s² 0 0 -0.87 61
19:00 317 J/kg -1.1 K 0 % 0 % 0 % 0 m²/s² 0 0 -0.41 61
20:00 291 J/kg -1.6 K 0 % 0 % 0 % 0 m²/s² 0 0 -0.76 61
21:00 579 J/kg -3.0 K 0 % 0 % 0 % 0 m²/s² 0 0 -0.18 61
22:00 436 J/kg -2.2 K 0 % 0 % 0 % 0 m²/s² 0 0 0.32 3
23:00 439 J/kg -2.1 K 0 % 0 % 0 % 0 m²/s² 0 0 -0.42 3
 07:15     16:53    Daglengte: 9:38 Morgen
00:00 494 J/kg -2.2 K 0 % 0 % 0 % 0 m²/s² 0 0 -0.85 80
01:00 346 J/kg -1.6 K 0 % 0 % 0 % 0 m²/s² 0 0 -0.25 80
02:00 356 J/kg -1.3 K 0 % 0 % 0 % 0 m²/s² 0 0 0.65 95
03:00 151 J/kg 0.2 K 0 % 0 % 0 % 0 m²/s² 0 0 1.97 95
04:00 226 J/kg 0.3 K 0 % 0 % 0 % 0 m²/s² 0 0 1.5 95
05:00 176 J/kg 0.1 K 0 % 0 % 0 % 0 m²/s² 0 0 1 95
06:00 272 J/kg -0.3 K 0 % 0 % 0 % 0 m²/s² 0 0 0.42 1
07:00 274 J/kg -0.3 K 0 % 0 % 0 % 0 m²/s² 0 0 1.35 2
08:00 315 J/kg -0.9 K 0 % 0 % 0 % 0 m²/s² 0 0 0.45 2
09:00 322 J/kg -0.7 K 0 % 0 % 0 % 0 m²/s² 0 0 0.65 3
10:00 49 J/kg 0.5 K 0 % 0 % 0 % 0 m²/s² 0 0 4.76 3
11:00 130 J/kg 0.4 K 0 % 0 % 0 % 0 m²/s² 0 0 4.81 3
12:00 129 J/kg 1.2 K 0 % 0 % 0 % 0 m²/s² 0 0 6.78 3
13:00 148 J/kg 1.8 K 0 % 0 % 0 % 0 m²/s² 0 0 6.81 3
14:00 139 J/kg 2.8 K 0 % 0 % 0 % 0 m²/s² 0 0 5.32 3
15:00 148 J/kg 3.3 K 0 % 0 % 0 % 0 m²/s² 0 0 4.83 3
16:00 195 J/kg 3.3 K 0 % 0 % 0 % 0 m²/s² 0 0 4.05 61
17:00 116 J/kg 3.9 K 0 % 0 % 0 % 0 m²/s² 0 0 4.53 61
18:00 0 J/kg 5.8 K 0 % 0 % 0 % 0 m²/s² 0 0 6.13 61
19:00 0 J/kg 8.4 K 0 % 0 % 0 % 0 m²/s² 0 0 8.64 61
20:00 0 J/kg 8.6 K 0 % 0 % 0 % 0 m²/s² 0 0 9.05 61
21:00 0 J/kg 7.9 K 0 % 0 % 0 % 0 m²/s² 0 0 7.99 61
22:00 0 J/kg 1.9 K 0 % 0 % 0 % 0 m²/s² 0 0 2.02 61
23:00 0 J/kg 0.6 K 0 % 0 % 0 % 0 m²/s² 0 0 1.29 61
 07:16     16:52    Daglengte: 9:36 Zondag 17 Nov
00:00 0 J/kg -0.3 K 0 % 0 % 0 % 0 m²/s² 0 0 -0.3 61
01:00 0 J/kg -3.5 K 0 % 0 % 0 % 0 m²/s² 0 0 -2.6 3
02:00 1 J/kg -4.4 K 0 % 0 % 0 % 0 m²/s² 0 0 -3.02 61
03:00 157 J/kg -4.9 K 0 % 0 % 0 % 0 m²/s² 0 0 -4.6 61
04:00 296 J/kg -5.4 K 0 % 0 % 0 % 0 m²/s² 0 0 -4.59 3
05:00 621 J/kg -5.2 K 0 % 0 % 0 % 0 m²/s² 0 0 -3.34 3
06:00 798 J/kg -3.4 K 0 % 0 % 0 % 0 m²/s² 0 0 -1.09 3
07:00 509 J/kg -2.0 K 0 % 0 % 0 % 0 m²/s² 0 0 -1.16 61
08:00 249 J/kg -1.1 K 0 % 0 % 0 % 0 m²/s² 0 0 1.57 61
09:00 255 J/kg -1.4 K 0 % 0 % 0 % 0 m²/s² 0 0 0.64 61
10:00 313 J/kg -1.1 K 0 % 0 % 0 % 0 m²/s² 0 0 0.46 3
11:00 332 J/kg -1.2 K 0 % 0 % 0 % 0 m²/s² 0 0 -0.63 3
12:00 12 J/kg 2.9 K 0 % 0 % 0 % 0 m²/s² 0 0 3.56 3
13:00 59 J/kg 1.3 K 0 % 0 % 0 % 0 m²/s² 0 0 2.02 3
14:00 26 J/kg 0.9 K 0 % 0 % 0 % 0 m²/s² 0 0 3.69 3
15:00 0 J/kg 1.9 K 0 % 0 % 0 % 0 m²/s² 0 0 8.08 3
16:00 8 J/kg 0.4 K 0 % 0 % 0 % 0 m²/s² 0 0 4.42 80
17:00 108 J/kg -0.1 K 0 % 0 % 0 % 0 m²/s² 0 0 4.55 80
18:00 148 J/kg -0.2 K 0 % 0 % 0 % 0 m²/s² 0 0 3.7 3
19:00 87 J/kg 0.0 K 0 % 0 % 0 % 0 m²/s² 0 0 3 3
20:00 71 J/kg -0.1 K 0 % 0 % 0 % 0 m²/s² 0 0 2.09 80
21:00 111 J/kg -0.4 K 0 % 0 % 0 % 0 m²/s² 0 0 2.15 80
22:00 266 J/kg -1.4 K 0 % 0 % 0 % 0 m²/s² 0 0 0.28 80
23:00 222 J/kg -0.8 K 0 % 0 % 0 % 0 m²/s² 0 0 0.46 80
 07:18     16:51    Daglengte: 9:33 Maandag 18 Nov
00:00 302 J/kg -1.3 K 0 % 0 % 0 % 0 m²/s² 0 0 1.76 80
01:00 252 J/kg -1.0 K 0 % 0 % 0 % 0 m²/s² 0 0 1.22 80
02:00 277 J/kg -1.1 K 0 % 0 % 0 % 0 m²/s² 0 0 -0.23 80
03:00 129 J/kg -0.2 K 0 % 0 % 0 % 0 m²/s² 0 0 2.23 80
04:00 117 J/kg 0.3 K 0 % 0 % 0 % 0 m²/s² 0 0 2.52 80
05:00 113 J/kg 1.5 K 0 % 0 % 0 % 0 m²/s² 0 0 3.54 3
06:00 74 J/kg 2.0 K 0 % 0 % 0 % 0 m²/s² 0 0 7.22 3
07:00 122 J/kg 1.1 K 0 % 0 % 0 % 0 m²/s² 0 0 7.31 80
08:00 146 J/kg 1.3 K 0 % 0 % 0 % 0 m²/s² 0 0 6.97 80
09:00 73 J/kg 1.3 K 0 % 0 % 0 % 0 m²/s² 0 0 6.85 2
10:00 77 J/kg 1.1 K 0 % 0 % 0 % 0 m²/s² 0 0 6.8 1
11:00 166 J/kg 0.6 K 0 % 0 % 0 % 0 m²/s² 0 0 5.46 1
12:00 24 J/kg 2.3 K 0 % 0 % 0 % 0 m²/s² 0 0 6.08 1
13:00 10 J/kg 3.1 K 0 % 0 % 0 % 0 m²/s² 0 0 5.71 1
14:00 194 J/kg 0.7 K 0 % 0 % 0 % 0 m²/s² 0 0 2.17
15:00 209 J/kg -0.1 K 0 % 0 % 0 % 0 m²/s² 0 0 0.26
16:00 189 J/kg -0.1 K 0 % 0 % 0 % 0 m²/s² 0 0 -0.07
Temp Baro Wind Neerslag
  EWN Forecast EWN WRFDA DWD ICON FMI HIRLAM MET Norway GFS
 07:14     16:53    Daglengte: 9:39 Vandaag
19:00 11.4° 1003.5 hPa 4.0 m/s 21.6 mm 13.1° 1000.9 hPa 5.5 m/s 66.5 mm 11.3° 1004.3 hPa 2.3 m/s 12.8 mm 12.7° 1002.1 hPa 4.3 m/s 0.0 mm 10.1° 1004.0 hPa 3.6 m/s 2.8 mm 10.1° 1003.4 hPa 1.8 m/s
22:00 11.0° 1004.9 hPa 4.9 m/s 8.4 mm 13.4° 1002.7 hPa 6.7 m/s 69.2 mm 10.7° 1005.3 hPa 3.0 m/s 0.3 mm 12.2° 1002.7 hPa 6.3 m/s 0.0 mm 9.6° 1005.4 hPa 4.5 m/s 1.2 mm 10.7° 1005.9 hPa 1.1 m/s
 07:15     16:53    Daglengte: 9:38 Morgen
01:00 11.5° 1005.6 hPa 4.9 m/s 10.9 mm 11.9° 1003.8 hPa 3.4 m/s 69.4 mm 10.6° 1006.5 hPa 3.8 m/s 2.0 mm 13.4° 1003.8 hPa 6.7 m/s 0.0 mm 11.5° 1005.8 hPa 4.8 m/s 3.3 mm 10.0° 1007.1 hPa 3.1 m/s
04:00 12.4° 1006.6 hPa 3.3 m/s 12.9 mm 12.8° 1005.2 hPa 4.5 m/s 69.6 mm 11.0° 1007.5 hPa 1.5 m/s 6.6 mm 14.0° 1005.9 hPa 4.8 m/s 0.0 mm 11.2° 1006.6 hPa 1.1 m/s 2.6 mm 10.4° 1008.1 hPa 1.8 m/s
07:00 11.6° 1008.9 hPa 1.2 m/s 7.6 mm 12.3° 1007.2 hPa 2.5 m/s 69.7 mm 9.5° 1009.6 hPa 2.7 m/s 1.6 mm 12.9° 1008.0 hPa 0.5 m/s 0.0 mm 10.8° 1008.9 hPa 0.8 m/s 1.0 mm 10.6° 1010.1 hPa 2.2 m/s
10:00 12.2° 1010.3 hPa 2.9 m/s 0.0 mm 12.3° 1008.8 hPa 3.4 m/s 71.0 mm 11.7° 1010.9 hPa 2.7 m/s 0.0 mm 13.3° 1009.2 hPa 2.5 m/s 0.0 mm 11.8° 1010.3 hPa 2.7 m/s 0.0 mm 12.3° 1011.7 hPa 2.9 m/s
13:00 13.5° 1009.2 hPa 3.0 m/s 0.0 mm 15.0° 1008.1 hPa 1.2 m/s 72.0 mm 12.7° 1009.7 hPa 3.0 m/s 0.0 mm 13.7° 1007.9 hPa 4.1 m/s 0.0 mm 13.2° 1009.2 hPa 2.7 m/s 0.0 mm 13.9° 1011.5 hPa 2.7 m/s
16:00 12.8° 1007.4 hPa 4.7 m/s 15.1 mm 13.7° 1007.1 hPa 4.1 m/s 72.0 mm 12.8° 1008.4 hPa 3.5 m/s 1.0 mm 13.6° 1006.0 hPa 5.5 m/s 0.0 mm 12.5° 1007.0 hPa 4.7 m/s 0.7 mm 12.7° 1010.3 hPa 5.0 m/s
19:00 11.5° 1006.1 hPa 5.3 m/s 16.7 mm 9.7° 1006.2 hPa 8.7 m/s 73.6 mm 11.5° 1008.0 hPa 4.3 m/s 1.8 mm 12.6° 1004.8 hPa 5.3 m/s 0.0 mm 11.0° 1005.1 hPa 5.0 m/s 3.1 mm 10.6° 1008.7 hPa 7.5 m/s
22:00 10.2° 1003.4 hPa 5.7 m/s 18.9 mm 7.7° 1001.0 hPa 10.0 m/s 96.3 mm 10.5° 1005.6 hPa 3.1 m/s 4.2 mm 9.8° 1001.9 hPa 6.9 m/s 0.0 mm 10.4° 1003.0 hPa 3.8 m/s 5.8 mm 9.6° 1006.0 hPa 8.1 m/s
 07:16     16:52    Daglengte: 9:36 Zondag 17 Nov
01:00 10.7° 999.9 hPa 3.9 m/s 26.9 mm 12.7° 995.6 hPa 10.9 m/s 139.9 mm 11.2° 1002.5 hPa 2.1 m/s 1.6 mm 10.7° 999.0 hPa 2.6 m/s 0.0 mm 10.5° 999.5 hPa 3.3 m/s 4.4 mm 9.4° 1001.8 hPa 5.5 m/s
04:00 10.8° 999.5 hPa 3.2 m/s 28.3 mm 14.7° 992.1 hPa 8.5 m/s 151.4 mm 10.6° 1000.1 hPa 1.7 m/s 0.4 mm 11.2° 998.5 hPa 1.0 m/s 0.0 mm 10.6° 1000.2 hPa 2.7 m/s 1.1 mm 10.1° 997.8 hPa 10.5 m/s
07:00 11.2° 1000.4 hPa 4.7 m/s 23.8 mm 14.7° 991.2 hPa 6.4 m/s 163.8 mm 10.4° 1001.0 hPa 1.9 m/s 0.8 mm 12.9° 1000.7 hPa 6.6 m/s 0.0 mm 10.9° 1003.7 hPa 3.1 m/s 0.7 mm 13.3° 995.8 hPa 8.5 m/s
10:00 13.0° 1003.0 hPa 5.1 m/s 33.9 mm 15.1° 991.3 hPa 8.6 m/s 169.7 mm 12.0° 1004.0 hPa 3.6 m/s 1.2 mm 12.9° 1006.6 hPa 4.9 m/s 1.6 mm 13.9° 996.9 hPa 7.2 m/s
13:00 13.0° 1004.5 hPa 7.7 m/s 36.8 mm 14.5° 995.2 hPa 8.7 m/s 173.2 mm 12.9° 1005.3 hPa 3.4 m/s 0.0 mm 12.5° 1007.6 hPa 8.1 m/s 2.3 mm 11.4° 998.9 hPa 7.4 m/s
16:00 12.9° 1005.8 hPa 6.0 m/s 30.1 mm 14.8° 998.4 hPa 6.0 m/s 174.1 mm 12.2° 1006.3 hPa 3.6 m/s 0.7 mm 12.5° 1008.9 hPa 6.2 m/s 4.4 mm 13.0° 1002.2 hPa 8.8 m/s
19:00 12.6° 1007.3 hPa 5.8 m/s 32.5 mm 14.4° 999.5 hPa 3.5 m/s 174.1 mm 11.4° 1007.8 hPa 4.6 m/s 0.4 mm 12.2° 1009.9 hPa 5.3 m/s 2.0 mm 13.2° 1004.4 hPa 6.6 m/s
22:00 11.1° 1008.2 hPa 3.7 m/s 36.9 mm 12.9° 1000.7 hPa 5.3 m/s 174.1 mm 10.4° 1008.6 hPa 2.2 m/s 2.4 mm 10.3° 1010.8 hPa 2.3 m/s 2.9 mm 10.9° 1006.1 hPa 2.4 m/s
 07:18     16:51    Daglengte: 9:33 Maandag 18 Nov
01:00 11.1° 1008.3 hPa 3.4 m/s 38.1 mm 12.9° 1000.6 hPa 6.1 m/s 176.3 mm 10.0° 1008.5 hPa 1.5 m/s 3.6 mm 10.4° 1011.2 hPa 2.4 m/s 3.5 mm 9.3° 1006.2 hPa 3.3 m/s
04:00 10.8° 1008.5 hPa 2.8 m/s 37.4 mm 12.8° 1001.8 hPa 5.9 m/s 176.8 mm 9.8° 1008.5 hPa 0.4 m/s 2.0 mm 10.0° 1011.5 hPa 1.6 m/s 3.2 mm 8.7° 1006.6 hPa 2.8 m/s
07:00 10.4° 1009.7 hPa 3.4 m/s 12.0 mm 13.3° 1002.4 hPa 10.0 m/s 176.8 mm 9.5° 1009.6 hPa 1.3 m/s 0.6 mm 8.9° 1012.6 hPa 2.0 m/s 0.4 mm 8.7° 1007.7 hPa 3.4 m/s
10:00 11.1° 1011.1 hPa 3.3 m/s 59.5 mm 14.4° 1004.4 hPa 7.9 m/s 176.8 mm 10.8° 1010.8 hPa 2.3 m/s 0.9 mm 10.7° 1012.6 hPa 2.9 m/s 10.6° 1009.1 hPa 3.3 m/s
13:00 13.0° 1010.9 hPa 4.2 m/s 0.0 mm 15.9° 1005.0 hPa 7.6 m/s 176.8 mm 13.0° 1010.2 hPa 4.0 m/s 0.0 mm 12.5° 1012.6 hPa 3.7 m/s 12.9° 1010.3 hPa 3.7 m/s
16:00 12.3° 1010.9 hPa 4.0 m/s 180.4 mm 12.9° 1003.8 hPa 4.4 m/s 180.4 mm 12.2° 1012.0 hPa 3.9 m/s 13.3° 1010.6 hPa 4.6 m/s
19:00 11.8° 1010.1 hPa 4.4 m/s 224.8 mm 10.7° 1001.5 hPa 6.4 m/s 224.8 mm 12.0° 1011.5 hPa 4.1 m/s 12.3° 1011.7 hPa 0.7 m/s
22:00 11.3° 1010.6 hPa 4.7 m/s 127.9 mm 11.4° 1010.5 hPa 4.5 m/s 10.8° 1011.8 hPa 6.4 m/s 127.9 mm
 07:19     16:50    Daglengte: 9:31 Dinsdag 19 Nov
01:00 11.0° 1010.0 hPa 5.0 m/s 131.8 mm 11.1° 1010.0 hPa 4.7 m/s 9.5° 1010.6 hPa 7.8 m/s 131.8 mm
04:00 11.0° 1009.1 hPa 4.5 m/s 137.3 mm 11.1° 1009.1 hPa 4.4 m/s 9.6° 1008.7 hPa 5.3 m/s 137.3 mm
07:00 11.0° 1008.3 hPa 4.0 m/s 137.8 mm 11.1° 1008.3 hPa 4.1 m/s 9.6° 1008.6 hPa 3.5 m/s 137.8 mm
10:00 12.7° 1009.2 hPa 4.2 m/s 137.8 mm 12.9° 1009.1 hPa 4.4 m/s 10.4° 1009.7 hPa 1.9 m/s 137.8 mm
13:00 14.6° 1010.0 hPa 4.7 m/s 137.8 mm 14.8° 1010.0 hPa 4.7 m/s 12.6° 1010.0 hPa 5.3 m/s 137.8 mm
16:00 13.8° 1011.8 hPa 4.8 m/s 137.8 mm 13.9° 1011.9 hPa 4.6 m/s 12.6° 1010.8 hPa 6.5 m/s 137.8 mm
19:00 13.0° 1013.6 hPa 4.5 m/s 137.9 mm 13.1° 1013.7 hPa 4.5 m/s 12.0° 1012.4 hPa 5.0 m/s 137.9 mm
22:00 12.9° 1014.6 hPa 4.8 m/s 138.3 mm 12.9° 1014.7 hPa 4.6 m/s 12.3° 1013.9 hPa 6.6 m/s 138.3 mm
 07:20     16:49    Daglengte: 9:29 Woensdag 20 Nov
01:00 12.8° 1015.6 hPa 4.9 m/s 138.8 mm 12.8° 1015.7 hPa 4.7 m/s 12.8° 1014.7 hPa 6.6 m/s 138.8 mm
04:00 12.3° 1016.1 hPa 3.1 m/s 139.5 mm 12.3° 1016.2 hPa 2.9 m/s 12.8° 1014.8 hPa 5.4 m/s 139.5 mm
07:00 11.8° 1016.6 hPa 1.3 m/s 140.0 mm 11.8° 1016.7 hPa 1.0 m/s 12.3° 1015.7 hPa 4.1 m/s 140.0 mm
10:00 12.8° 1016.7 hPa 1.5 m/s 141.3 mm 12.9° 1016.7 hPa 1.4 m/s 12.0° 1017.1 hPa 2.7 m/s 141.3 mm
13:00 13.8° 1016.7 hPa 2.0 m/s 141.8 mm 14.0° 1016.7 hPa 1.8 m/s 11.5° 1016.7 hPa 3.7 m/s 141.8 mm
16:00 12.9° 1016.5 hPa 1.9 m/s 142.1 mm 13.0° 1016.5 hPa 1.8 m/s 12.4° 1016.1 hPa 3.8 m/s 142.1 mm
19:00 12.0° 1016.4 hPa 1.9 m/s 142.4 mm 12.0° 1016.4 hPa 1.7 m/s 12.0° 1016.3 hPa 3.9 m/s 142.4 mm
22:00 11.1° 1016.2 hPa 2.6 m/s 142.7 mm 11.0° 1016.1 hPa 2.4 m/s 12.0° 1016.3 hPa 4.7 m/s 142.7 mm
 07:21     16:48    Daglengte: 9:27 Donderdag 21 Nov
01:00 10.1° 1015.9 hPa 3.2 m/s 142.9 mm 10.0° 1015.9 hPa 3.1 m/s 11.8° 1015.8 hPa 4.7 m/s 142.9 mm
04:00 9.9° 1015.3 hPa 3.5 m/s 143.6 mm 9.8° 1015.3 hPa 3.2 m/s 11.6° 1014.6 hPa 5.7 m/s 143.6 mm
07:00 9.7° 1014.8 hPa 3.6 m/s 148.4 mm 9.5° 1014.8 hPa 3.4 m/s 11.8° 1014.5 hPa 5.3 m/s 148.4 mm
10:00 11.6° 1014.9 hPa 3.5 m/s 149.0 mm 11.6° 1014.8 hPa 3.3 m/s 12.5° 1015.0 hPa 5.1 m/s 149.0 mm
13:00 13.7° 1014.9 hPa 3.3 m/s 149.3 mm 13.6° 1014.9 hPa 3.2 m/s 14.5° 1014.5 hPa 5.0 m/s 149.3 mm
16:00 13.2° 1015.1 hPa 3.5 m/s 150.0 mm 13.1° 1015.2 hPa 3.4 m/s 14.6° 1013.7 hPa 5.2 m/s 150.0 mm
19:00 12.7° 1015.5 hPa 3.7 m/s 150.8 mm 12.6° 1015.6 hPa 3.6 m/s 13.2° 1014.1 hPa 4.6 m/s 150.8 mm
22:00 12.0° 1016.3 hPa 3.5 m/s 151.0 mm 12.0° 1016.4 hPa 3.4 m/s 12.6° 1015.3 hPa 4.7 m/s 151.0 mm
 07:23     16:48    Daglengte: 9:25 Vrijdag 22 Nov
01:00 11.5° 1016.9 hPa 3.2 m/s 151.0 mm 11.4° 1017.1 hPa 3.1 m/s 12.6° 1014.7 hPa 4.9 m/s 151.0 mm
04:00 11.5° 1017.1 hPa 3.6 m/s 151.0 mm 11.4° 1017.4 hPa 3.5 m/s 12.5° 1014.0 hPa 5.2 m/s 151.0 mm
07:00 11.6° 1017.3 hPa 3.9 m/s 151.1 mm 11.5° 1017.6 hPa 3.8 m/s 12.6° 1013.7 hPa 5.5 m/s 151.1 mm
10:00 14.1° 1017.1 hPa 4.0 m/s 151.3 mm 14.1° 1017.3 hPa 3.8 m/s 14.2° 1014.6 hPa 6.3 m/s 151.3 mm
13:00 16.6° 1016.7 hPa 3.9 m/s 151.3 mm 16.7° 1017.0 hPa 3.7 m/s 15.1° 1013.3 hPa 6.4 m/s 151.3 mm
16:00 15.7° 1016.6 hPa 4.4 m/s 151.9 mm 15.8° 1017.0 hPa 4.2 m/s 14.3° 1012.3 hPa 6.5 m/s 151.9 mm
19:00 14.9° 1016.6 hPa 4.9 m/s 153.5 mm 15.0° 1017.0 hPa 4.7 m/s 14.1° 1011.8 hPa 6.7 m/s 153.5 mm
 07:24     16:47    Daglengte: 9:23 Zaterdag 23 Nov
01:00 13.4° 1016.5 hPa 4.2 m/s 154.2 mm 13.4° 1016.9 hPa 4.0 m/s 14.0° 1011.8 hPa 6.3 m/s 154.2 mm
07:00 12.9° 1015.3 hPa 4.7 m/s 166.0 mm 12.9° 1015.8 hPa 4.7 m/s 12.7° 1010.0 hPa 4.3 m/s 166.0 mm
13:00 16.8° 1014.6 hPa 3.8 m/s 172.0 mm 16.9° 1015.3 hPa 3.7 m/s 16.3° 1007.5 hPa 4.5 m/s 172.0 mm
19:00 15.5° 1013.7 hPa 3.2 m/s 175.1 mm 15.7° 1014.6 hPa 3.1 m/s 13.4° 1003.5 hPa 4.6 m/s 175.1 mm
 07:25     16:46    Daglengte: 9:21 Zondag 24 Nov
01:00 13.9° 1013.1 hPa 5.0 m/s 177.5 mm 13.9° 1013.9 hPa 4.8 m/s 13.7° 1004.8 hPa 6.6 m/s 177.5 mm
07:00 13.2° 1011.7 hPa 6.2 m/s 177.8 mm 13.3° 1012.2 hPa 6.4 m/s 12.3° 1006.6 hPa 4.0 m/s 177.8 mm
13:00 17.5° 1010.4 hPa 6.0 m/s 178.0 mm 17.6° 1010.6 hPa 6.2 m/s 15.8° 1008.0 hPa 3.4 m/s 178.0 mm
19:00 14.9° 1009.7 hPa 5.6 m/s 178.9 mm 14.9° 1009.7 hPa 5.8 m/s 14.4° 1009.9 hPa 2.9 m/s 178.9 mm
 07:26     16:46    Daglengte: 9:20 Maandag 25 Nov
01:00 13.6° 1007.9 hPa 5.1 m/s 180.1 mm 13.6° 1007.6 hPa 5.1 m/s 14.0° 1011.7 hPa 5.5 m/s 180.1 mm
07:00 14.1° 1013.0 hPa 3.6 m/s 182.0 mm 14.1° 1013.0 hPa 3.6 m/s 182.0 mm
13:00 15.0° 1010.3 hPa 1.6 m/s 1.9 mm
19:00 13.7° 1010.5 hPa 1.6 m/s 3.0 mm
 07:27     16:45    Daglengte: 9:18 Dinsdag 26 Nov
01:00 13.1° 1011.4 hPa 1.3 m/s 2.4 mm
07:00 12.7° 1011.1 hPa 1.8 m/s 1.8 mm
13:00 14.4° 1011.1 hPa 1.2 m/s 2.5 mm
19:00 13.2° 1010.6 hPa 0.9 m/s 2.1 mm
 07:29     16:45    Daglengte: 9:16 Woensdag 27 Nov
01:00 12.6° 1010.6 hPa 1.0 m/s 1.4 mm
07:00 12.4° 1009.8 hPa 1.2 m/s 1.1 mm
13:00 14.2° 1009.8 hPa 1.4 m/s 1.7 mm
19:00 13.3° 1009.6 hPa 1.6 m/s 2.0 mm
 07:30     16:44    Daglengte: 9:14 Donderdag 28 Nov
01:00 13.0° 1009.7 hPa 1.1 m/s 1.9 mm
07:00 12.8° 1009.8 hPa 1.8 m/s 1.3 mm
13:00 14.5° 1010.5 hPa 1.0 m/s 0.9 mm
19:00 13.5° 1011.0 hPa 1.4 m/s 0.4 mm
 07:31     16:44    Daglengte: 9:13 Vrijdag 29 Nov
01:00 13.0° 1011.4 hPa 2.3 m/s 1.2 mm
07:00 12.7° 1011.3 hPa 2.0 m/s 3.3 mm
13:00 14.5° 1011.6 hPa 1.3 m/s 1.8 mm
19:00 13.3° 1011.2 hPa 1.6 m/s 1.4 mm
 07:32     16:43    Daglengte: 9:11 Zaterdag 30 Nov
01:00 13.0° 1010.9 hPa 1.6 m/s 0.9 mm
07:00 12.6° 1010.3 hPa 1.4 m/s 1.4 mm
13:00 14.2° 1010.3 hPa 0.7 m/s 1.8 mm
FMI Hirlam - 7.5 km EWN WRFDA - 12 km DWD ICON - 7 km GFS - 25 km Basiskaart